[[{"header":{"parameterUnit":"m.s-1","parameterCategory":1,"la1":30.2991,"la2":30.254,"lo1":-89.0895,"lo2":-89.0444,"dy":0.0017,"dx":0.0017,"nx":28,"ny":28,"refTime":"2024-06-28T09:00:00:Z","depth":0,"parameterNumber":2,"parameterNumberName":"U-component_of_WINDS"},"data":[0,0,0,0,0,0,0,0,0,0,0,0,0,0,0,0,0,0,0,0,0,0,0,0,0,0,0,0,0,0,0,0,0,0,0,0,0,0,0,0,0,0,0,0,0,0,0,0,0,0,0,0,0,0,0,0,0,0,0.3334,0.3335,0,0.3402,0.3403,0.3404,0.3409,0.3408,0.3408,0.3407,0.3476,0.3479,0.3481,0,0,0,0,0,0,0,0,0,0,0,0,0,0.3207,0.3209,0.3334,0.3335,0.3336,0.3402,0.3403,0.3404,0.3409,0.3408,0.3407,0.3407,0.3475,0.3478,0.3481,0,0,0,0,0,0,0,0,0,0,0,0,0,0.3267,0.321,0.3334,0.3346,0.3348,0.3402,0.3403,0.3404,0.3409,0.3408,0.3407,0.3406,0.3474,0.3478,0.3482,0.3528,0,0,0.3493,0.3495,0,0,0,0,0,0,0,0,0.3264,0.3272,0.3344,0.3346,0.3348,0.3396,0.3384,0.3446,0.341,0.3386,0.3407,0.3406,0.345,0.3456,0.3471,0.3531,0.3534,0.3494,0.3496,0.3498,0.3499,0,0,0,0,0,0,0,0.3259,0.3269,0.3361,0.3345,0.3347,0.3348,0.3355,0.3395,0.3424,0.3388,0.3389,0.3397,0.3451,0.3468,0.3473,0.3535,0.3494,0.3497,0.3499,0.3501,0.3634,0.3635,0,0,0,0,0,0,0.3253,0.3265,0.3359,0.3363,0.3302,0.3351,0.3359,0.3382,0.3423,0.3429,0.3398,0.3397,0.3462,0.3469,0.3475,0.3532,0.3498,0.3501,0.3503,0.3633,0.3635,0.3636,0,0,0,0,0,0,0.325,0.3261,0.3356,0.3314,0.3327,0.3355,0.338,0.3384,0.34,0.343,0.3435,0.3409,0.3461,0.347,0.3514,0.3534,0.3503,0.3506,0.3632,0.3634,0.3635,0.3644,0,0,0,0,0,0,0.3247,0.326,0.3279,0.3315,0.3329,0.3395,0.3381,0.3386,0.3407,0.3406,0.3443,0.3448,0.3461,0.3509,0.3518,0.3539,0.3509,0.363,0.3632,0.3635,0.3642,0.3646,0.3649,0,0,0,0,0,0.3242,0.3279,0.328,0.3291,0.3352,0.3396,0.3404,0.3418,0.3408,0.3427,0.3446,0.3447,0.353,0.3513,0.3524,0.3546,0.3629,0.3632,0.3634,0.3641,0.3645,0.3649,0,0,0,0,0,0,0.3244,0.3284,0.3285,0.3335,0.3362,0.3397,0.342,0.3423,0.3454,0.3452,0.3468,0.3477,0.352,0.3537,0.3518,0.3592,0.3578,0.3583,0.3579,0.3584,0.3588,0.3583,0.3513,0,0,0,0,0,0.325,0.3283,0.3315,0.3356,0.3369,0.3392,0.3412,0.3421,0.3449,0.3461,0.3483,0.3511,0.3543,0.3565,0.3596,0.3644,0.3652,0.3664,0.3668,0.3671,0.3675,0.3701,0.3707,0.3645,0.3645,0.3645,0,0,0.3264,0.3289,0.3309,0.3357,0.3379,0.3412,0.3402,0.3437,0.3462,0.3466,0.351,0.3527,0.3559,0.3605,0.3626,0.3621,0.3694,0.3674,0.3676,0.368,0.3705,0.3711,0.3716,0.3647,0.3647,0.3647,0,0,0.3304,0.3327,0.3363,0.3385,0.3419,0.3433,0.3442,0.3476,0.3488,0.3531,0.3535,0.3564,0.3619,0.3642,0.366,0.3708,0.3709,0.3717,0.3737,0.3762,0.3767,0.3771,0.3788,0.3794,0.3722,0.3722,0.3722,0,0.3317,0.3367,0.3381,0.3416,0.3437,0.3442,0.3478,0.3498,0.354,0.3554,0.3547,0.3616,0.3638,0.3689,0.37,0.3715,0.3725,0.3714,0.3765,0.3769,0.3774,0.379,0.3796,0.3722,0.3722,0.3722,0.3722,0,0.338,0.3414,0.3439,0.3479,0.3502,0.3538,0.3557,0.3578,0.3585,0.36,0.3644,0.367,0.3706,0.3719,0.3725,0.3771,0.3766,0.3761,0.3748,0.378,0.3796,0.3802,0.3723,0.3723,0.3723,0.3723,0,0,0.3425,0.3472,0.3481,0.3499,0.3535,0.3562,0.3597,0.3632,0.3651,0.3679,0.3708,0.3754,0.375,0.3771,0.378,0.3802,0.3837,0.3795,0.3796,0.3802,0.3888,0.3892,0.3899,0.3838,0.3839,0.384,0.3886,0,0.347,0.3533,0.3547,0.3601,0.3632,0.3637,0.3667,0.3692,0.3707,0.3735,0.3751,0.3784,0.3776,0.3788,0.381,0.3828,0.3855,0.3825,0.3865,0.3867,0.3858,0.3907,0.3911,0.3953,0.3892,0.3893,0.3894,0,0.3532,0.3562,0.3619,0.365,0.3664,0.3691,0.3724,0.3751,0.3779,0.3788,0.3811,0.3817,0.3853,0.3837,0.3886,0.3865,0.3882,0.3894,0.3895,0.39,0.3883,0.3914,0.3967,0.3973,0.3903,0.3903,0.3902,0,0.356,0.3613,0.3655,0.367,0.3707,0.3726,0.3742,0.377,0.379,0.3818,0.3831,0.3864,0.3882,0.3906,0.392,0.3908,0.3968,0.3954,0.3976,0.3976,0.399,0.3989,0.4047,0.4,0.4,0.4,0.3999,0,0.3609,0.3644,0.3667,0.3693,0.3731,0.3745,0.3783,0.3799,0.3823,0.3851,0.3856,0.3883,0.39,0.3928,0.3939,0.3978,0.3986,0.3994,0.3996,0.3994,0.3993,0.4006,0.4003,0.4001,0.4001,0.4001,0.4,0,0.3647,0.3664,0.3709,0.3741,0.3749,0.3776,0.3803,0.3827,0.3841,0.3877,0.3886,0.3908,0.3941,0.3958,0.3999,0.4007,0.405,0.4051,0.4041,0.4042,0.4064,0.4062,0.4133,0.4143,0.4089,0.4089,0.409,0,0.3678,0.3705,0.3739,0.3758,0.3775,0.3805,0.3826,0.384,0.3861,0.3894,0.3914,0.3948,0.3976,0.4029,0.4048,0.408,0.4081,0.4104,0.4086,0.4082,0.4082,0.408,0.4083,0.4107,0.4108,0.4108,0.4109,0,0.373,0.3737,0.3767,0.3799,0.3823,0.3849,0.3874,0.389,0.3908,0.3931,0.3965,0.3986,0.4028,0.4061,0.4094,0.411,0.4112,0.4114,0.4121,0.4119,0.4112,0.4116,0.405,0.4112,0.4112,0.4112,0.4112,0.4111,0.3766,0.379,0.3817,0.3849,0.387,0.3893,0.3917,0.3934,0.3963,0.3998,0.4005,0.4041,0.4067,0.4111,0.4128,0.4156,0.4151,0.4161,0.4164,0.4166,0.4167,0.4107,0.4162,0.4162,0.4162,0.4162,0.4162,0,0.3819,0.3836,0.3866,0.3901,0.3926,0.3926,0.3953,0.3974,0.4006,0.403,0.4057,0.4096,0.4128,0.4149,0.4181,0.4199,0.4201,0.4207,0.4207,0.421,0.417,0.4161,0.4205,0.4205,0.4205,0.4205,0.4205,0.4205,0.3849,0.3889,0.3899,0.3949,0.3966,0.4002,0.4018,0.4039,0.4058,0.4101,0.4128,0.4141,0.4164,0.4198,0.4226,0.4232,0.4244,0.425,0.4255,0.4218,0.4213,0.4209,0.42,0.4252,0.4252,0.4293,0.4293,0.4294]},{"header":{"parameterUnit":"m.s-1","parameterCategory":1,"la1":30.2991,"la2":30.254,"lo1":-89.0895,"lo2":-89.0444,"dy":0.0017,"dx":0.0017,"nx":28,"ny":28,"refTime":"2024-06-28T09:00:00:Z","depth":0,"parameterNumber":3,"parameterNumberName":"V-component_of_WINDS"},"data":[0,0,0,0,0,0,0,0,0,0,0,0,0,0,0,0,0,0,0,0,0,0,0,0,0,0,0,0,0,0,0,0,0,0,0,0,0,0,0,0,0,0,0,0,0,0,0,0,0,0,0,0,0,0,0,0,0,0,5.8422,5.8422,0,5.8396,5.8396,5.8395,5.8275,5.8272,5.8269,5.8267,5.8241,5.8243,5.8245,0,0,0,0,0,0,0,0,0,0,0,0,0,5.8369,5.8371,5.8422,5.8422,5.8421,5.8396,5.8396,5.8395,5.8275,5.8272,5.8268,5.8265,5.8241,5.8243,5.8245,0,0,0,0,0,0,0,0,0,0,0,0,0,5.8373,5.8371,5.8422,5.8359,5.8353,5.8396,5.8396,5.8395,5.8276,5.8272,5.8268,5.8264,5.824,5.8243,5.8246,5.8349,0,0,5.8255,5.8256,0,0,0,0,0,0,0,0,5.8373,5.8375,5.8368,5.8363,5.8356,5.8334,5.8367,5.838,5.8277,5.8305,5.8266,5.8262,5.8276,5.8275,5.828,5.8347,5.8346,5.8255,5.8257,5.8258,5.8259,0,0,0,0,0,0,0,5.8373,5.8375,5.8412,5.8368,5.8361,5.8332,5.8327,5.8369,5.8315,5.8302,5.8294,5.8292,5.8272,5.8277,5.8278,5.8346,5.8255,5.8257,5.8259,5.826,5.8497,5.8501,0,0,0,0,0,0,5.8381,5.8376,5.8413,5.8411,5.8354,5.8336,5.8331,5.8346,5.8314,5.8305,5.8296,5.8287,5.8274,5.8275,5.8277,5.8395,5.8258,5.8261,5.8262,5.8492,5.8498,5.8503,0,0,0,0,0,0,5.8381,5.8386,5.8414,5.8391,5.8392,5.8341,5.8359,5.8347,5.8353,5.8309,5.8298,5.8312,5.8271,5.8273,5.8332,5.8393,5.8262,5.8265,5.8487,5.8494,5.85,5.8633,0,0,0,0,0,0,5.8379,5.8386,5.8424,5.8393,5.8394,5.8469,5.8362,5.835,5.8358,5.8346,5.8321,5.8313,5.8268,5.8328,5.8335,5.8394,5.8267,5.8481,5.849,5.8498,5.8623,5.8644,5.8661,0,0,0,0,0,5.8378,5.8463,5.8427,5.8432,5.8441,5.8472,5.8473,5.8419,5.8364,5.8402,5.8374,5.8313,5.8385,5.8335,5.8341,5.8403,5.8477,5.8488,5.8497,5.8614,5.8639,5.8661,0,0,0,0,0,0,5.8504,5.8458,5.8417,5.8495,5.8488,5.8452,5.8498,5.8448,5.8457,5.8446,5.8379,5.8375,5.8443,5.8429,5.8374,5.8501,5.8421,5.8433,5.8508,5.8531,5.855,5.8552,5.8269,0,0,0,0,0,5.8541,5.857,5.8528,5.8601,5.8599,5.855,5.8562,5.8521,5.8512,5.8509,5.8484,5.8478,5.8499,5.8514,5.8531,5.8621,5.8613,5.8666,5.8685,5.8701,5.8712,5.8758,5.8781,5.8536,5.8536,5.8536,0,0,5.8617,5.8595,5.8618,5.8625,5.8615,5.8647,5.8548,5.8586,5.8609,5.8514,5.8568,5.8551,5.8539,5.8614,5.8645,5.8604,5.8778,5.8714,5.8727,5.8729,5.8771,5.8794,5.8815,5.8543,5.8542,5.8541,0,0,5.8772,5.8759,5.8817,5.8809,5.8796,5.8762,5.8777,5.8748,5.8733,5.8785,5.8715,5.8742,5.8779,5.8774,5.8776,5.893,5.8875,5.8938,5.9037,5.9083,5.9102,5.9119,5.9173,5.9194,5.8949,5.8949,5.8949,0,5.8868,5.8913,5.8854,5.8896,5.8902,5.8817,5.8876,5.8871,5.8865,5.887,5.8824,5.887,5.8856,5.8928,5.8966,5.8971,5.8985,5.894,5.9104,5.912,5.9135,5.9186,5.9207,5.8957,5.8956,5.8955,5.8954,0,5.9032,5.9064,5.9113,5.9108,5.9119,5.917,5.9119,5.9137,5.9096,5.9068,5.9123,5.9104,5.9115,5.9129,5.909,5.9196,5.9171,5.9116,5.9033,5.9167,5.9214,5.9233,5.8968,5.8965,5.8963,5.8961,0,0,5.9264,5.9226,5.9245,5.9242,5.9221,5.9244,5.9292,5.9302,5.9319,5.9318,5.9356,5.939,5.9338,5.9341,5.93,5.9341,5.9463,5.928,5.9279,5.9314,5.9579,5.962,5.9644,5.9427,5.9431,5.9433,5.958,0,5.9412,5.9489,5.9438,5.9523,5.9552,5.9473,5.9514,5.9506,5.9481,5.9502,5.9475,5.95,5.9431,5.9432,5.9468,5.9441,5.9515,5.9429,5.9462,5.9463,5.9466,5.9668,5.9712,5.9851,5.9598,5.9601,5.9603,0,5.9593,5.9599,5.9688,5.9661,5.9671,5.9709,5.9715,5.9736,5.9726,5.9705,5.9709,5.9658,5.9702,5.9622,5.9683,5.9626,5.9636,5.9625,5.9629,5.9629,5.9541,5.9674,5.9894,5.9915,5.9631,5.9629,5.9627,0,5.9753,5.9784,5.984,5.984,5.981,5.9839,5.9828,5.9813,5.9823,5.9828,5.9834,5.9845,5.9851,5.9861,5.9815,5.9761,5.9882,5.9798,5.9866,5.9867,5.9894,5.9893,6.0118,5.9902,5.9902,5.9902,5.9901,0,5.9923,5.998,5.9912,5.9947,6.0009,5.995,6.0013,5.9993,5.9981,6.0011,5.9944,5.9974,5.9911,5.9934,5.9899,5.9954,5.9958,5.9942,5.9932,5.9948,5.995,5.9953,5.9942,5.9907,5.9906,5.9905,5.9904,0,6.0111,6.0068,6.0124,6.0092,6.0085,6.0132,6.0104,6.0136,6.0106,6.0145,6.0151,6.0106,6.013,6.0085,6.0104,6.008,6.0158,6.0133,6.0161,6.0153,6.0223,6.0217,6.0459,6.0487,6.0254,6.0256,6.0258,0,6.0222,6.0264,6.0236,6.0251,6.0243,6.0269,6.0278,6.0222,6.0235,6.0226,6.0259,6.0278,6.0289,6.0332,6.0301,6.0315,6.029,6.0373,6.0291,6.0306,6.029,6.0288,6.0292,6.039,6.0393,6.0395,6.0397,0,6.0422,6.0399,6.0415,6.0424,6.0437,6.0442,6.0441,6.0458,6.0398,6.0416,6.044,6.0449,6.0468,6.0488,6.0495,6.0484,6.0431,6.0423,6.044,6.0456,6.047,6.0463,6.0206,6.0418,6.0416,6.0414,6.0413,6.0412,6.0574,6.0608,6.0593,6.0614,6.0607,6.0609,6.0636,6.0611,6.063,6.064,6.0606,6.0638,6.0627,6.063,6.0625,6.065,6.0613,6.0636,6.0642,6.0649,6.066,6.0468,6.0651,6.065,6.065,6.0649,6.0649,0,6.077,6.0757,6.0777,6.0778,6.0794,6.0743,6.074,6.0757,6.0786,6.078,6.0793,6.0821,6.0839,6.081,6.0824,6.0849,6.0826,6.0855,6.0852,6.085,6.0693,6.0677,6.0874,6.0874,6.0874,6.0874,6.0874,6.0874,6.0874,6.0928,6.0903,6.0954,6.094,6.097,6.0973,6.0974,6.0969,6.1003,6.1018,6.0999,6.0983,6.0996,6.1011,6.1002,6.101,6.1048,6.1031,6.0884,6.0862,6.084,6.0825,6.105,6.1051,6.1186,6.1187,6.1188]}]]